Regional Weather Roundup
Issued by NWS

Home | Current Version | Previous Version | Graphics & Text | Print | Product List | Glossary On
Versions: 1 2 3 4 5 6 7 8 9 10 11 12 13 14 15 16 17 18 19 20 21 22 23 24 25 26 27 28 29 30 31 32 33 34 35 36 37 38 39 40 41 42 43 44 45 46 47 48 49 50
000
ASUS43 KDTX 260610
RWRMI
MICHIGAN HOURLY REGIONAL WEATHER ROUNDUP
NATIONAL WEATHER SERVICE DETROIT/PONTIAC MI
100 AM EST MON JAN 26 2015

NOTE: "FAIR" INDICATES FEW OR NO CLOUDS BELOW 12,000 FEET WITH NO
SIGNIFICANT WEATHER AND/OR OBSTRUCTION TO VISIBILITY.

MIZ047>049-052>055-059>063-066>070-074>076-081>083-260700-
SOUTHEAST LOWER MICHIGAN

CITY           SKY/WX    TMP DP  RH WIND       PRES   REMARKS
ADRIAN         CLOUDY    18   9  68 NE12      29.95F WCI   5
6HR MIN TEMP:  18; 6HR MAX TEMP:  22; 6HR PCP: TRACE;

ALMA           CLEAR     12   8  85 N6        30.02F WCI   2
6HR MIN TEMP:  12; 6HR MAX TEMP:  19;

ANN ARBOR      MOCLDY    18   8  65 NE12      29.96F WCI   5
BAD AXE        LGT SNOW  17  13  86 E5        30.03F WCI  10
CARO           PTCLDY    15  10  80 E6        30.02F WCI   7
DETROIT CITY   CLOUDY    17   3  54 NE12      29.99F WCI   4
6HR MIN TEMP:  17; 6HR MAX TEMP:  20;

DETROIT        CLOUDY    18   5  57 N10       29.98F WCI   6
6HR MIN TEMP:  18; 6HR MAX TEMP:  20;

FLINT          PTCLDY    16  10  77 NE8       30.00F WCI   5
6HR MIN TEMP:  16; 6HR MAX TEMP:  19;

GROSSE ILE     CLOUDY    18   5  57 NE10      29.96F WCI   6
HILLSDALE      MOCLDY    16   7  68 NE7       29.91F WCI   6
6HR MIN TEMP:  16; 6HR MAX TEMP:  24;

HOWELL         PTCLDY    14  10  85 N7        29.97F WCI   4

CITY           SKY/WX    TMP DP  RH WIND       PRES   REMARKS
JACKSON        PTCLDY    14   9  80 NE7       29.95F WCI   4
6HR MIN TEMP:  14; 6HR MAX TEMP:  22;

LAMBERTVILLE   CLOUDY    21   7  53 NE9G17    29.95S WCI  11
LANSING        MOCLDY    14   8  77 NE9       29.99F WCI   2
6HR MIN TEMP:  14; 6HR MAX TEMP:  20;

LAPEER         FAIR      14   8  77 NE7       30.00S WCI   4
MASON          PTCLDY    14   9  80 NE8       29.97F WCI   3
MONROE         CLOUDY    18   7  62 NE7       29.94F WCI   8
MT. CLEMENS    MOCLDY    15   3  59 NE9       29.98S WCI   3
6HR MIN TEMP:  15; 6HR MAX TEMP:  19;

PONTIAC        MOCLDY    14   7  73 NE8       29.96S WCI   3
6HR MIN TEMP:  14; 6HR MAX TEMP:  17;

PORT HOPE        N/A     20  12  71 NE13      30.03S WCI   7
6HR MIN TEMP:  19; 6HR MAX TEMP:  21;

PORT HURON     MOCLDY    12   5  73 NE9       30.01S WCI   0
TRI CITIES     CLOUDY    14   8  77 N8        30.03F WCI   3
6HR MIN TEMP:  14; 6HR MAX TEMP:  20; 6HR PCP: TRACE;

TROY           MOCLDY    18   9  65 NE9       30.00S WCI   7
SAGINAW HB     MOCLDY    16  14  93 N8        30.02F WCI   5
$$
MIZ043>046-050>051-056>058-064>065-071>073-077>080-260700-
SOUTHWEST LOWER MICHIGAN

CITY           SKY/WX    TMP DP  RH WIND       PRES   REMARKS
BATTLE CREEK   FAIR      17   8  67 NE9       29.97S WCI   6
6HR MIN TEMP:  17; 6HR MAX TEMP:  25;

BENTON HARBOR  CLEAR     16   9  74 NE6       29.98F WCI   7
6HR MIN TEMP:  16; 6HR MAX TEMP:  24;

BIG RAPIDS     CLEAR      8   5  85 CALM      30.00F
6HR MIN TEMP:   6; 6HR MAX TEMP:  19;

COLDWATER      PTCLDY    15   8  73 N8        29.95R WCI   4
6HR MIN TEMP:  15; 6HR MAX TEMP:  24;

FREMONT        FAIR      11   2  67 E7        30.00F WCI   0
HOLLAND        CLEAR     17   9  70 E5        30.00F WCI  10
6HR MIN TEMP:  17; 6HR MAX TEMP:  22;

GRAND RAPIDS   CLEAR     15   9  76 NE9       30.00F WCI   3
6HR MIN TEMP:  15; 6HR MAX TEMP:  19;

IONIA          FAIR      15  10  81 NE8       29.99F WCI   4
KALAMAZOO      CLEAR     16   8  71 NE7       29.97S WCI   6
6HR MIN TEMP:  16; 6HR MAX TEMP:  24;

LUDINGTON      CLEAR     10   3  74 E3        30.04S
6HR MIN TEMP:   8; 6HR MAX TEMP:  18;

MARSHALL       MOCLDY    15   9  78 NE5       29.96S WCI   7
MOUNT PLEASANT CLEAR     10   4  79 CALM      30.02F
MUSKEGON       CLEAR     14   6  70 E7        30.02F WCI   4
6HR MIN TEMP:  14; 6HR MAX TEMP:  22;

SOUTH HAVEN    CLEAR     17  10  72 E6        29.98F WCI   9
$$
MIZ016>042-260700-
NORTHERN LOWER MICHIGAN

CITY           SKY/WX    TMP DP  RH WIND       PRES   REMARKS
ALPENA         PTCLDY    -3  -8  79 CALM      30.06F
6HR MIN TEMP:  -4; 6HR MAX TEMP:   9;

BEAVER ISLAND  PTCLDY    -1  -5  82 CALM      30.04F
6HR MIN TEMP:  -5; 6HR MAX TEMP:   5;

BELLAIRE       PTCLDY    -3  -7  84 CALM      30.05F
6HR MIN TEMP:  -3; 6HR MAX TEMP:  13;

CADILLAC       PTCLDY     1  -2  85 E5        29.97F WCI  -8
CHARLEVOIX     CLEAR      2  -2  86 E3        30.07F
6HR MIN TEMP:   2; 6HR MAX TEMP:  13;

FRANKFORT      CLEAR     10   4  75 SE7       30.04S WCI   0
GAYLORD        PTCLDY    -9 -12  87 CALM      29.98F
6HR MIN TEMP:  -9; 6HR MAX TEMP:  11;

GRAYLING       PTCLDY   -10 -15  78 CALM      30.01F
6HR MIN TEMP: -12; 6HR MAX TEMP:   8;

HARBOR SPRINGS PTCLDY    -3  -7  84 NE5       30.03F WCI -14
HOUGHTON LAKE  PTCLDY     0  -5  79 NE3       30.00F
6HR MIN TEMP:  -2; 6HR MAX TEMP:  12;

MANISTEE       CLEAR      5   1  85 SE3       30.03F
OSCODA         CLOUDY    11   7  83 NW5       30.04F WCI   3
PELLSTON       PTCLDY   -11 -15  82 CALM      30.05F
6HR MIN TEMP: -12; 6HR MAX TEMP:   4;

ROGERS CITY    PTCLDY    -3  -5  90 CALM      30.06F
TRAVERSE CITY  PTCLDY     8   1  73 SE5       30.03F WCI   0
6HR MIN TEMP:   3; 6HR MAX TEMP:  15;

$$
MIZ007>008-015-260700-
EASTERN UPPER MICHIGAN

CITY           SKY/WX    TMP DP  RH WIND       PRES   REMARKS
KINROSS        MOCLDY    -6  -9  84 SE6       30.04F WCI -18
6HR MIN TEMP:  -8; 6HR MAX TEMP:   1;

MACKINAC ISLAN MOCLDY     4   0  83 SE7       30.03F WCI  -8
6HR MIN TEMP:   3; 6HR MAX TEMP:   8;

NEWBERRY       MOCLDY   -11 -13  92 SE6       30.03S WCI -25
S. S. MARIE    MOCLDY    -4  -9  79 E6        30.05F WCI -16
6HR MIN TEMP:  -5; 6HR MAX TEMP:   5;

MUNISING         N/A      7  -2  66 S7        30.04F WCI  -5
6HR MIN TEMP:   2; 6HR MAX TEMP:  10;

$$
MIZ004>006-011>014-085-260700-
CENTRAL UPPER MICHIGAN

CITY           SKY/WX    TMP DP  RH WIND       PRES   REMARKS
MANISTIQUE     MOCLDY    -4  -7  87 CALM      30.04S
6HR MIN TEMP:  -4; 6HR MAX TEMP:   7;

ESCANABA       PTCLDY     0  -2  92 CALM      30.03F
6HR MIN TEMP:   0; 6HR MAX TEMP:  16;

MENOMINEE      CLEAR      5   3  92 CALM      30.03F
6HR MIN TEMP:   5; 6HR MAX TEMP:  14;

SAWYER-GWINN   PTCLDY     1  -3  83 CALM      29.98F
$$
MIZ001>003-009>011-084-260700-
WESTERN UPPER MICHIGAN

CITY           SKY/WX    TMP DP  RH WIND       PRES   REMARKS
IRON MOUNTAIN  PTCLDY    -2  -6  83 CALM      29.98F
6HR MIN TEMP:  -2; 6HR MAX TEMP:  10;

HOUGHTON       PTCLDY     9   3  77 S6        29.94F WCI  -1
6HR MIN TEMP:  -2; 6HR MAX TEMP:  10;

COPPER HARBOR    N/A     14   8  77 SW6       29.97F WCI   5
6HR MIN TEMP:   3; 6HR MAX TEMP:  14;

IRONWOOD       CLOUDY    16   7  67 S9        29.90F WCI   4
6HR MIN TEMP:   3; 6HR MAX TEMP:  16;

$$

ABBREVIATIONS USED IN REMARKS
   TC - TEMPERATURE IN CELSIUS
  WCI - WIND CHILL INDEX
   HX - HEAT INDEX
  VSB - VISIBILITY




USA.gov is the U.S. government's official web portal to all federal, state and local government web resources and services.